Regional Weather Roundup
Issued by NWS Wakefield, VA

Home | Current Version | Previous Version | Graphics & Text | Print | Product List | Glossary On
Versions: 1 2 3 4 5 6 7 8 9 10 11 12 13 14 15 16 17 18 19 20 21 22 23 24 25 26 27 28 29 30 31 32 33 34 35 36 37 38 39 40 41 42 43 44 45 46 47 48 49 50
000
ASUS41 KAKQ 220310
RWRAKQ

REGIONAL WEATHER ROUNDUP
NATIONAL WEATHER SERVICE WAKEFIELD VA
1100 PM EDT MON JUL 21 2014

Note: "fair" indicates few or no clouds below 12,000 feet with no
significant weather and/or obstructions to visibility. * = Denotes
station may not report precipitation (e.g., rain,snow,etc.),
thunder or fog.

VAZ042-051-052>054-056-220400-
NORTHERN VIRGINIA

CITY           SKY/WX    TMP DP  RH WIND       PRES   REMARKS
WASH NATIONAL  MOCLDY    77  66  68 S7        30.18S
DULLES         PTCLDY    73  67  81 S5        30.18S
FORT BELVOIR   PTCLDY    71  68  91 SE2       30.19R
QUANTICO       PTCLDY    77  71  82 S10       30.19R
FREDERICKSBRG* PTCLDY    74  71  92 SE3       30.17S
STAFFORD*      PTCLDY    72  72 100 CALM      30.22S
WARRENTON      PTCLDY    73  73 100 CALM      30.18S
CULPEPER*      MOCLDY   N/A N/A N/A CALM      30.19R
MANASSAS*      PTCLDY    72  70  94 CALM      30.18S
LEESBURG*      PTCLDY    75  70  83 S3        30.20R
WINCHESTER     PTCLDY    72  68  88 SE3       30.18S
$$

VAZ048-049-060>072-079>083-220400-
CENTRAL AND SOUTH CENTRAL VIRGINIA...AND NORTH CENTRAL NORTH CAROLINA

CITY           SKY/WX    TMP DP  RH WIND       PRES   REMARKS
RICHMOND       MOCLDY    74  70  87 SE6       30.18R
CHESTERFIELD*  CLOUDY    73  63  68 SE6       30.20S
HANOVER        CLOUDY    74  70  87 E3        30.20R
TAPPAHANNOCK*  MOCLDY    73  68  86 CALM      30.20R
CHARLOTTSVILLE CLOUDY    73  71  93 CALM      30.18S FOG
ORANGE*        MOCLDY    72  68  88 CALM      30.20S
LOUISA*        CLOUDY    73  70  88 CALM      30.18S
FARMVILLE*     MOCLDY    73  72  94 SE3       30.16S
SOUTH HILL*    MOCLDY    73  73 100 CALM      30.23S
ROANOKE RAPIDS MOCLDY    66  64  94 CALM      30.17R
RALEIGH        CLOUDY    73  70  90 SE5       30.17S
$$

VAZ088>098-220400-
SOUTHEAST VIRGINIA

CITY           SKY/WX    TMP DP  RH WIND       PRES   REMARKS
NORFOLK        CLOUDY    74  69  85 SE3       30.17S
VIRGINIA BEACH CLOUDY    74  70  87 SE3       30.17S
NORFOLK NAVAL  MOCLDY    74  69  85 SE3       30.19R
WEST POINT*    MOCLDY    74  69  87 NE3       30.20R
NEWPORT NEWS   MOCLDY    75  70  84 CALM      30.18R
LANGLEY AFB    MOCLDY    74  74  98 SE3       30.17S
FORT EUSTIS    MOCLDY    74  74  99 SE2       30.16R
WILLIAMSBURG*  PTCLDY    75  72  88 CALM      30.19S
FRANKLIN*      MOCLDY    72  72 100 CALM      30.17S
WAKEFIELD      MOCLDY    72  69  90 CALM      30.18R
$$

VAZ020-022-025-037-045-220400-
WESTERN AND SOUTHWEST VIRGINIA

CITY           SKY/WX    TMP DP  RH WIND       PRES   REMARKS
STAUNTON*      CLOUDY    73  67  83 CALM      30.22S
HOT SPRINGS VA FOG       64  62  94 S3        30.32S VSB<1/4
LYNCHBURG      MOCLDY    72  70  93 SE5       30.20R
DANVILLE       CLOUDY    73  71  93 E3        30.18R
MARTINSVILLE   CLOUDY    70  69  98 CALM      30.21R FOG
ROANOKE        PTCLDY    73  68  84 CALM      30.21S
BLACKSBURG     CLOUDY    72  70  94 SE3       30.26S
DUBLIN*        CLOUDY    72  70  94 E3        30.25R
MARION*        MOCLDY    68  67  98 CALM      30.27R
HILLSVILLE*    CLOUDY    68  66  93 SE3       30.26R
RICHLANDS*     PTCLDY    72  66  82 SE3       30.22S
WISE*          CLOUDY    72  63  73 S5        30.23S
ABINGDON*      MOCLDY    73  67  81 CALM      30.20S
$$

MDZ021>025-VAZ099-100-220400-
SOUTHERN MARYLAND AND THE DELMARVA PENINSULA

CITY           SKY/WX    TMP DP  RH WIND       PRES   REMARKS
PATUXENT RIVER MOCLDY    73  68  84 S8        30.18R
BAY BRIDGE APT   N/A     77  68  73 SE5       30.18R
LEONARDTOWN    PTCLDY    72  66  83 MISG      30.20R
DOVER          PTCLDY    69  68  96 S8        30.17S
GEORGETOWN     PTCLDY    68  64  87 CALM      30.19S
EASTON         PTCLDY    74  71  88 CALM      30.22
CAMBRIDGE      PTCLDY    72  66  83 SE3       30.18S
SALISBURY      NOT AVBL
OCEAN CITY     PTCLDY    66  64  93 CALM      30.19S
WALLOPS ISLAND PTCLDY    72  69  90 SE6       30.19S
ACCOMACK*        N/A     72  68  88 CALM      30.18S
$$

NCZ012>017-030>032-220400-
EASTERN NORTH CAROLINA

CITY           SKY/WX    TMP DP  RH WIND       PRES   REMARKS
ELIZABETH CITY MOCLDY    74  71  91 E6        30.17S
AHOSKIE*       MOCLDY    72  70  92 CALM      30.17S
EDENTON*       MOCLDY    72  70  94 NE3       30.16S
CURRITUCK*     MOCLDY    75  69  81 CALM      30.17F
KILL DEVIL HLS MOCLDY    75  72  91 CALM      30.15S
MANTEO         NOT AVBL
CAPE HATTERAS  MOCLDY    76  74  93 NE3       30.15R
GOLDSBORO      CLOUDY    74  74  99 NE5       30.13S
WASHINGTON     MOCLDY    72  69  93 CALM      30.16S
GREENVILLE     CLOUDY    73  72  94 E5        30.16S
NEW BERN       PTCLDY    77  74  90 NE3       30.15S
WILMINGTON     CLOUDY    75  73  93 N3        30.12S
$$

VAZ048-220400-
ELSEWHERE

CITY           SKY/WX    TMP DP  RH WIND       PRES   REMARKS
HARRISBURG PA  PTCLDY    72  66  81 E3        30.16S
BALTIMORE      PTCLDY    71  66  84 CALM      30.17S
ANNAPOLIS      PTCLDY    76  68  76 CALM      30.18R
ANDREWS AFB    MOCLDY    71  67  87 S6        30.19R
WILMINGTON DE  PTCLDY    73  64  73 CALM      30.19S
PHILADELPHIA   CLEAR     74  57  55 S7        30.19R
WILDWOOD NJ*   PTCLDY    68  63  83 CALM      30.19F
ATLANTIC CITY  PTCLDY    68  63  84 CALM      30.19S
HENDERSON NC   CLOUDY    72  70  93 CALM      30.18S
GREENSBORO     MOCLDY    72  70  93 S5        30.17S
ROCKY MOUNT    CLOUDY    73  71  93 CALM      30.16S
FAYETTEVILLE   CLOUDY    73  71  93 NE5       30.15R
CHARLOTTE      CLOUDY    74  69  85 NE5       30.16R
$$

VAZ100-220400-
MARINE

STATION/POSITION TIME  TEMP    WIND        PRES    WAVE   SWELL
                       AIR SEA DIR/SP/G            HT/PER HT/PER
                 (UTC) (F)     (DEG/KT/KT) (MB)    (FT/S) (FT/S)
44066 TX TWR #4  0300   70 72  320/  2/  4 1021.9S   3/ 8   3/ 8
CAPE MAY NJ      0300   69 74  150/  2/  3 1021.9S
LEWES DE         0300   69 70  160/  2/  3 1022.0S
15NM E FENWICK I 0200   73 75              1022.3R   3/ 8
OCEAN-CITY-INLET 0300   72 70  140/  4/  5 1021.8S
WACHAPREAGUE VA  0300   73 79   90/  5/  6 1021.9S
THOMAS POINT MD  0300   78 79  190/ 11/ 13 1022.3R
GOOSES REEF MD   0300   77     180/ 12/ 14 1022.2R
COVE POINT MD    0300   76     180/ 13/ 14 1021.7S
SOLOMONS ISLAND  0300      81                N/A
BISHOPS HEAD MD  0300   74 80  130/ 10/ 12 1021.6S
PINEY POINT MD   0300          170/ 10/ 12   N/A
POTOMAC MD       0300   76     150/ 12/ 14 1021.2S
CAMBRIDGE MD     0300   74 80  130/  4/  7 1021.7S
LEWISETTA VA     0300   75 80  170/  4/  4 1022.0R
RAPPAHANNOCK LGT 0300           90/  6/  7 1022.6R
STINGRAY PT      0300   75     140/ 10/ 12 1021.2S
YORK RVR RNG VA  0300   76     130/  9/ 11 1021.3R
YORKTOWN VA      0300   75 80  110/  5/  6 1021.6S
JAMESTOWN VA     0300   74     120/  6/  6   N/A
DOMINION TERM VA 0300   75     110/  7/  9 1021.8R
KIPTOPEKE VA     0300      78  110/  4/  7   N/A
CHES BAY BRIDGE  0300   75 75   80/  6/  9 1021.2R
CAPE HENRY VA    0300   74     110/  8/ 10 1020.4R
WILLOUBY STN VA  0300          140/  6/  7 1021.0R
S CRANEY ISL VA  0300          100/  4/  5 1021.7R
CAPE HENRY BUOY  0300      76                N/A     3/ 7
1ST LANDING BUOY 0300   75     110/  8/ 10 1021.1F
CAPE CHARLES BUO 0300      74                N/A     2/ 6
OFFSHORE WE BUOY 0300      76                N/A     3/ 8
64NM E OF VA BCH 0300   76 77   80/  6/  8 1021.1F   3/ 7   3/ 7
DUCK PIER NC     0300   75 76   70/  8/ 10 1020.7F
44056 DUCK FRF   0200                        N/A     2/ 8
OREGON INLET NC  0300   75 78   50/  8/ 12 1020.8F
HATTERAS NC      0300   76 81   90/  3/  4 1021.2R
DIAMOND SHLS NC  0300          VRB 12/ 14  1020.4R   3/ 8   3/ 8
CAPE LOOKOUT NC  0200   78     100/ 11/ 13 1019.6F
$$



USA.gov is the U.S. government's official web portal to all federal, state and local government web resources and services.